Regional Weather Roundup
Issued by NWS Wakefield, VA

Home | Current Version | Previous Version | Graphics & Text | Print | Product List | Glossary On
Versions: 1 2 3 4 5 6 7 8 9 10 11 12 13 14 15 16 17 18 19 20 21 22 23 24 25 26 27
000
ASUS41 KAKQ 230510
RWRAKQ

REGIONAL WEATHER ROUNDUP
NATIONAL WEATHER SERVICE WAKEFIELD VA
100 AM EDT WED APR 23 2014

Note: "fair" indicates few or no clouds below 12,000 feet with no
significant weather and/or obstructions to visibility. * = Denotes
station may not report precipitation (e.g., rain,snow,etc.),
thunder or fog.

VAZ042-051-052>054-056-230600-
NORTHERN VIRGINIA

CITY           SKY/WX    TMP DP  RH WIND       PRES   REMARKS
WASH NATIONAL  PTCLDY    60  44  55 NW17G31   29.68R
DULLES         MOCLDY    54  40  59 NW18G26   29.70R
FORT BELVOIR   MOCLDY    59  49  68 NW13G23   29.67R
QUANTICO       PTCLDY    60  46  59 N14       29.68R
FREDERICKSBRG* CLEAR     61  50  65 N8        29.68R
STAFFORD*      MOCLDY    60  49  67 N8G18     29.72R
WARRENTON      CLEAR     58  52  79 N14       29.69R
CULPEPER*      MOCLDY    61  46  59 N10       29.70R
MANASSAS*      MOCLDY    57  46  67 NW10G21   29.69R
LEESBURG*      PTCLDY    54  41  62 N21G28    29.71S
WINCHESTER     PTCLDY    52  37  58 NW7G16    29.74R
$$

VAZ048-049-060>072-079>083-230600-
CENTRAL AND SOUTH CENTRAL VIRGINIA...AND NORTH CENTRAL NORTH CAROLINA

CITY           SKY/WX    TMP DP  RH WIND       PRES   REMARKS
RICHMOND       MOCLDY    61  53  75 CALM      29.63S
CHESTERFIELD*  NOT AVBL
HANOVER        MOCLDY    61  52  72 VRB6      29.67R
TAPPAHANNOCK*  CLEAR     61  52  71 NW3       29.64R
CHARLOTTSVILLE PTCLDY    63  35  35 NW5       29.68R
ORANGE*        PTCLDY    57  50  77 N9        29.69S
LOUISA*        PTCLDY    59  52  77 N7        29.67R
FARMVILLE*     CLEAR     63  52  67 CALM      29.65R
SOUTH HILL*    CLEAR     63  57  82 SW5       29.71S
ROANOKE RAPIDS CLEAR     50  43  76 W7        29.65F
RALEIGH        PTCLDY    61  54  77 W7        29.70F
$$

VAZ088>098-230600-
SOUTHEAST VIRGINIA

CITY           SKY/WX    TMP DP  RH WIND       PRES   REMARKS
NORFOLK        CLOUDY    67  55  65 SW6       29.61F
VIRGINIA BEACH CLOUDY    65  54  67 W8        29.61F
NORFOLK NAVAL  MOCLDY    67  56  67 W6        29.63S
WEST POINT*    PTCLDY    57  54  91 CALM      29.63S
NEWPORT NEWS   MOCLDY    67  55  65 W6        29.62S
LANGLEY AFB    MOCLDY    62  57  81 W7        29.62S
FORT EUSTIS    MOCLDY    64  57  78 W2        29.61S
WILLIAMSBURG*    N/A     64  57  77 W3        29.63S
FRANKLIN*      MOCLDY    64  57  77 W3        29.64S
WAKEFIELD      MOCLDY    63  57  81 SW3       29.64R
$$

VAZ020-022-025-037-045-230600-
WESTERN AND SOUTHWEST VIRGINIA

CITY           SKY/WX    TMP DP  RH WIND       PRES   REMARKS
STAUNTON*      PTCLDY    57  33  40 W6        29.73R
HOT SPRINGS VA CLEAR     46  28  49 W17G28    29.80S
LYNCHBURG      CLEAR     57  49  74 CALM      29.71R
DANVILLE       PTCLDY    63  55  75 W10       29.70S
MARTINSVILLE   CLEAR     61  53  75 W5        29.75S
ROANOKE        PTCLDY    64  33  31 W18G26    29.76R
BLACKSBURG     CLEAR     57  39  51 NW16G24   29.80R
DUBLIN*        CLEAR     58  36  43 NW9       29.79S
MARION*        CLEAR     56  35  45 W15G25    29.84R
HILLSVILLE*    CLEAR     55  37  50 NW13      29.83S
RICHLANDS*     CLEAR     57  33  39 NW10G20   29.86R
WISE*          CLEAR     52  32  46 W5        29.90R
ABINGDON*      CLEAR     57  40  52 NW6       29.85S
$$

MDZ021>025-VAZ099-100-230600-
SOUTHERN MARYLAND AND THE DELMARVA PENINSULA

CITY           SKY/WX    TMP DP  RH WIND       PRES   REMARKS
PATUXENT RIVER PTCLDY    57  52  83 NW7       29.64R
BAY BRIDGE APT NOT AVBL
LEONARDTOWN    MOCLDY    54  52  94 CALM      29.67R
DOVER          PTCLDY    60  50  69 NW12      29.57R
GEORGETOWN     PTCLDY    57  53  86 CALM      29.62R
EASTON         PTCLDY    56  55  98 CALM      29.67R
CAMBRIDGE      PTCLDY    55  52  88 CALM      29.63R
SALISBURY      LGT RAIN  61  55  81 W8        29.63R
OCEAN CITY     MOCLDY    55  52  89 S3        29.62R
WALLOPS ISLAND CLOUDY    59  55  87 N5        29.62R
ACCOMACK*      MOCLDY    57  54  88 S3        29.60S
$$

NCZ012>017-030>032-230600-
EASTERN NORTH CAROLINA

CITY           SKY/WX    TMP DP  RH WIND       PRES   REMARKS
ELIZABETH CITY CLOUDY    63  55  75 SW7       29.63F
AHOSKIE*       CLEAR     62  54  74 CALM      29.66S
EDENTON*       CLOUDY    66  56  70 SW3       29.65S
CURRITUCK*     CLOUDY    65  52  62 SW3       29.63F
KILL DEVIL HLS CLOUDY    65  52  62 SW7       29.63R
MANTEO         CLOUDY    63  52  67 W6        29.65R
CAPE HATTERAS  CLOUDY    59 N/A N/A W8        29.66F
GOLDSBORO      CLOUDY    65  58  78 W9        29.68S
WASHINGTON     CLOUDY    68  58  69 SW5       29.67S
GREENVILLE     CLOUDY    66  55  68 W5        29.71S
NEW BERN       CLOUDY    68  56  65 SW3       29.69S
WILMINGTON     CLOUDY    67  57  70 W7        29.73S
$$

VAZ048-230600-
ELSEWHERE

CITY           SKY/WX    TMP DP  RH WIND       PRES   REMARKS
HARRISBURG PA  PTCLDY    50  34  54 NW20      29.66S
BALTIMORE      MOCLDY    56  45  66 NW13G20   29.66R
ANNAPOLIS      PTCLDY    60  48  64 NW13      29.65R
ANDREWS AFB    CLEAR     58  46  63 NW18G26   29.66R
WILMINGTON DE  LGT RAIN  59  42  53 NW17G25   29.62R
PHILADELPHIA   CLOUDY    60  40  47 W14G24    29.60S
WILDWOOD NJ*     N/A    N/A N/A N/A MISG        N/A
ATLANTIC CITY  PTCLDY    57  45  64 W8        29.57F
HENDERSON NC   CLEAR     62  53  73 SW6       29.69R
GREENSBORO     PTCLDY    61  55  81 W10       29.73R
ROCKY MOUNT    PTCLDY    63  54  72 SW5       29.68S
FAYETTEVILLE   CLEAR     62  57  83 W8        29.72F
CHARLOTTE      CLEAR     58  56  93 CALM      29.78S
$$

VAZ100-230600-
MARINE

STATION/POSITION TIME  TEMP    WIND        PRES    WAVE   SWELL
                       AIR SEA DIR/SP/G            HT/PER HT/PER
                 (UTC) (F)     (DEG/KT/KT) (MB)    (FT/S) (FT/S)
44066 TX TWR #4  0500   48 45  230/ 12/ 14 1000.0F   5/ 9   5/ 9
CAPE MAY NJ      0500   55 55  240/  5/  7 1001.9R
LEWES DE         0500   57 50  220/  5/  6 1001.6S
15NM E FENWICK I 0500   50 47              1002.5R   4/ 9
OCEAN-CITY-INLET 0500   55 51  200/  2/  3 1002.5R
WACHAPREAGUE VA  0500   59 62  260/  3/  4 1002.0S
THOMAS POINT MD  0500   60 54  320/ 23/ 30 1003.7S
GOOSES REEF MD   0500   57     310/  4/  4   N/A
COVE POINT MD    0500   58     340/  5/  7 1003.6F
SOLOMONS ISLAND  0500      56                N/A
BISHOPS HEAD MD  0500   60 60  260/  4/  5 1003.1R
PINEY POINT MD   0500           10/  6/  6   N/A
POTOMAC MD       0500   60      10/ 10/ 12 1002.4F
CAMBRIDGE MD     0500   59 57  230/  4/  5 1003.0S
LEWISETTA VA     0500   60 58   10/  7/ 12 1003.0S
RAPPAHANNOCK LGT 0500          220/  8/  9 1002.9R
STINGRAY PT      0500   61     260/  4/  6 1002.7F
YORK RVR RNG VA  0500   65     270/  9/  9 1001.9S
YORKTOWN VA      0500   67 58  260/  9/ 10 1002.4S
JAMESTOWN VA     0500   63     310/  2/  6   N/A
DOMINION TERM VA 0500   65     260/  6/  7 1002.9S
KIPTOPEKE VA     0500      56  220/  8/  9   N/A
CHES BAY BRIDGE  0500   67 53  230/ 10/ 11 1002.4F
CAPE HENRY VA    0500   67     230/  6/  9   N/A
CHESAPEAKE LGHT  0400   64     200/  6/  6 1003.5S
WILLOUBY STN VA  0500   64     240/ 12/ 12 1001.8F
S CRANEY ISL VA  0500          240/  7/ 10 1002.9S
CAPE HENRY BUOY  0500      54                N/A     3/ 8
1ST LANDING BUOY 0500      51                N/A     3/ 8   3/ 8
64NM E OF VA BCH 0500   53 49  220/  6/  8 1002.1F   4/ 9   5/ 9
DUCK PIER NC     0500   65 48  260/ 10/ 12 1002.5F
44100 DUCK FRF   0500      51                N/A     3/ 8
44056 DUCK FRF   0500      50                N/A     3/ 8   2/11
OREGON INLET NC  0500   62 60  220/ 11/ 12 1003.5R
HATTERAS NC      0500   61 57  230/  7/ 10 1004.5F
DIAMOND SHLS NC  0500   71 76  250/ 23/ 27 1003.6F   7/ 6   3/ 9
CAPE LOOKOUT NC  0400   63     250/ 12/ 15 1005.2F
FRYING PAN SHLS  0500   67 67  280/ 16/ 19 1007.0R   5/ 6   2/ 9
$$



USA.gov is the U.S. government's official web portal to all federal, state and local government web resources and services.